Date String (YYYY-MM-DD hh:mm:ss) UTC,Instrument flags,absolute air pressure of the measurement (hPa),sample flow rate (lpm),inlet stack bypass flow (lpm),air temperature of the measurement (°C),ambient temperature measured by the external sensor (°C),aerosol sample conditioner tube jacket temperature (°C),OPC LED temperature (°C),internal box temperature (°C),relative humidity of the measurement (%),span deviation,mass concentration of particles derived from Lorenz-Mie calculation of OPC scattering (μg/m³),mass concentration of particles derived from Lorenz-Mie calculation of OPC scattering (μg/m³),mass concentration of particles derived from Lorenz-Mie calculation of OPC scattering (μg/m³)
DateTimeUTC,F1_M11,P_M11,Q1_M11,Q2_M11,T1_M11,T2_M11,T3_M11,T4_M11,T5_M11,U1_M11,ZSPAN_M11,X0_M11,X2_M11,X1_M11
2024-05-27 12:00:00,SystemResetWarning,0831.9,4.99,000.00,029.5,028.6,000.0,037.9,031.2,013.5,0000.0,0008.12,0003.49,0002.99
2024-05-27 12:01:00,SystemResetWarning,0832.1,5.00,000.00,029.5,028.6,000.0,037.9,031.2,013.5,0000.0,0007.76,0003.46,0002.98
2024-05-27 12:02:00,SystemResetWarning,0832.0,5.01,000.00,029.5,028.6,000.0,037.9,031.2,013.5,0000.0,0008.26,0003.45,0003.00
2024-05-27 12:03:00,SystemResetWarning,0832.2,5.00,000.00,029.5,028.6,000.0,037.9,031.2,013.5,0000.0,0008.56,0003.46,0002.99
2024-05-27 12:04:00,SystemResetWarning,0832.2,5.00,000.00,029.5,028.6,000.0,037.9,031.2,013.5,0000.0,0008.22,0003.47,0002.99
2024-05-27 12:05:00,SystemResetWarning,0832.0,5.01,000.00,029.5,028.6,000.0,037.9,031.2,013.5,0000.0,0007.64,0003.48,0002.99
2024-05-27 12:06:00,SystemResetWarning,0831.8,4.99,000.00,029.5,028.6,000.0,037.9,031.1,013.5,0000.0,0007.87,0003.48,0002.98
2024-05-27 12:07:00,SystemResetWarning,0831.8,4.99,000.00,029.5,028.6,000.0,037.9,031.2,013.5,0000.0,0007.86,0003.46,0002.99
2024-05-27 12:08:00,SystemResetWarning,0831.9,4.99,000.00,029.5,028.6,000.0,037.9,031.1,013.5,0000.0,0007.86,0003.47,0002.98
2024-05-27 12:09:00,SystemResetWarning,0831.9,5.00,000.00,029.5,028.6,000.0,037.9,031.1,013.5,0000.0,0007.91,0003.48,0002.98
2024-05-27 12:10:00,SystemResetWarning,0831.9,5.01,000.00,029.5,028.6,000.0,037.9,031.1,013.6,0000.0,0007.90,0003.51,0002.98
2024-05-27 12:11:00,SystemResetWarning,0831.9,5.01,000.00,029.5,028.6,000.0,037.9,031.1,013.5,0000.0,0007.79,0003.51,0002.97
2024-05-27 12:12:00,SystemResetWarning,0831.9,4.99,000.00,029.4,028.6,000.0,037.9,031.1,013.6,0000.0,0007.89,0003.54,0002.96
2024-05-27 12:13:00,SystemResetWarning,0831.9,4.99,000.00,029.4,028.6,000.0,037.8,031.1,013.7,0000.0,0007.92,0003.55,0002.96
2024-05-27 12:14:00,SystemResetWarning,0832.0,5.00,000.00,029.4,028.6,000.0,037.9,031.1,013.7,0000.0,0007.62,0003.52,0002.95
2024-05-27 12:15:00,SystemResetWarning,0832.0,5.01,000.00,029.4,028.6,000.0,037.9,031.1,013.7,0000.0,0007.66,0003.52,0002.95
2024-05-27 12:16:00,SystemResetWarning,0832.0,5.01,000.00,029.4,028.6,000.0,037.8,031.1,013.7,0000.0,0007.51,0003.51,0002.94
2024-05-27 12:17:00,SystemResetWarning,0832.0,5.00,000.00,029.4,028.6,000.0,037.8,031.1,013.6,0000.0,0007.15,0003.48,0002.93
2024-05-27 12:18:00,SystemResetWarning,0832.0,4.99,000.00,029.4,028.6,000.0,037.8,031.1,013.6,0000.0,0007.06,0003.49,0002.93
2024-05-27 12:19:00,SystemResetWarning,0832.1,4.99,000.00,029.5,028.6,000.0,037.8,031.1,013.6,0000.0,0007.03,0003.48,0002.94
2024-05-27 12:20:00,SystemResetWarning,0832.1,4.99,000.00,029.4,028.6,000.0,037.8,031.1,013.6,0000.0,0007.49,0003.48,0002.94
2024-05-27 12:21:00,SystemResetWarning,0832.1,5.00,000.00,029.4,028.6,000.0,037.8,031.1,013.6,0000.0,0007.59,0003.48,0002.93
2024-05-27 12:22:00,SystemResetWarning,0832.1,5.01,000.00,029.4,028.6,000.0,037.8,031.1,013.5,0000.0,0007.46,0003.47,0002.93
2024-05-27 12:23:00,SystemResetWarning,0832.1,5.01,000.00,029.5,028.6,000.0,037.8,031.1,013.4,0000.0,0007.37,0003.45,0002.95
2024-05-27 12:24:00,SystemResetWarning,0832.2,4.99,000.00,029.5,028.6,000.0,037.8,031.1,013.5,0000.0,0006.53,0003.45,0002.95
2024-05-27 12:25:00,SystemResetWarning,0832.2,5.00,000.00,029.5,028.6,000.0,037.8,031.2,013.5,0000.0,0006.65,0003.47,0002.95
2024-05-27 12:26:00,SystemResetWarning,0832.2,4.99,000.00,029.5,028.6,000.0,037.8,031.2,013.6,0000.0,0006.54,0003.46,0002.95
2024-05-27 12:27:00,SystemResetWarning,0832.2,5.01,000.00,029.5,028.6,000.0,037.8,031.2,013.5,0000.0,0006.36,0003.42,0002.94
2024-05-27 12:28:00,SystemResetWarning,0832.2,5.01,000.00,029.5,028.6,000.0,037.8,031.2,013.5,0000.0,0007.69,0003.41,0002.94
2024-05-27 12:29:00,SystemResetWarning,0832.2,5.01,000.00,029.5,028.6,000.0,037.8,031.2,013.6,0000.0,0008.23,0003.41,0002.93
2024-05-27 12:30:00,SystemResetWarning,0832.2,4.99,000.00,029.5,028.6,000.0,037.8,031.2,013.7,0000.0,0008.22,0003.41,0002.91
2024-05-27 12:31:00,SystemResetWarning,0832.3,4.99,000.00,029.5,028.6,000.0,037.8,031.2,013.7,0000.0,0007.89,0003.37,0002.90
2024-05-27 12:32:00,SystemResetWarning,0832.3,5.01,000.00,029.4,028.6,000.0,037.8,031.1,013.8,0000.0,0007.76,0003.37,0002.89
2024-05-27 12:33:00,SystemResetWarning,0832.3,5.01,000.00,029.4,028.6,000.0,037.8,031.1,013.7,0000.0,0007.93,0003.39,0002.89
2024-05-27 12:34:00,SystemResetWarning,0832.3,5.00,000.00,029.4,028.6,000.0,037.8,031.1,013.9,0000.0,0008.05,0003.43,0002.87
2024-05-27 12:35:00,SystemResetWarning,0832.3,4.99,000.00,029.4,028.6,000.0,037.8,031.2,013.8,0000.0,0008.14,0003.42,0002.88
2024-05-27 12:36:00,SystemResetWarning,0832.3,4.99,000.00,029.4,028.6,000.0,037.8,031.1,013.8,0000.0,0008.26,0003.41,0002.89
2024-05-27 12:37:00,SystemResetWarning,0832.3,5.01,000.00,029.4,028.6,000.0,037.8,031.1,013.7,0000.0,0008.34,0003.44,0002.89
2024-05-27 12:38:00,SystemResetWarning,0832.3,5.02,000.00,029.4,028.6,000.0,037.8,031.1,013.7,0000.0,0008.42,0003.47,0002.90
2024-05-27 12:39:00,SystemResetWarning,0832.4,4.99,000.00,029.4,028.6,000.0,037.8,031.1,013.7,0000.0,0007.93,0003.50,0002.91
2024-05-27 12:40:00,SystemResetWarning,0832.4,4.99,000.00,029.4,028.6,000.0,037.8,031.1,013.6,0000.0,0007.27,0003.51,0002.92
2024-05-27 12:41:00,SystemResetWarning,0832.4,4.99,000.00,029.4,028.6,000.0,037.8,031.1,013.6,0000.0,0007.55,0003.51,0002.93
2024-05-27 12:42:00,SystemResetWarning,0832.3,5.00,000.00,029.4,028.5,000.0,037.8,031.1,013.7,0000.0,0008.24,0003.55,0002.94
2024-05-27 12:43:00,SystemResetWarning,0832.3,5.00,000.00,029.4,028.5,000.0,037.8,031.1,013.7,0000.0,0008.21,0003.56,0002.94
2024-05-27 12:44:00,SystemResetWarning,0832.4,5.01,000.00,029.4,028.5,000.0,037.8,031.1,013.9,0000.0,0008.16,0003.55,0002.95
2024-05-27 12:45:00,SystemResetWarning,0832.3,5.00,000.00,029.4,028.5,000.0,037.8,031.1,013.7,0000.0,0008.48,0003.54,0002.97
2024-05-27 12:46:00,SystemResetWarning,0832.3,5.00,000.00,029.4,028.5,000.0,037.8,031.1,013.7,0000.0,0008.61,0003.58,0002.97
2024-05-27 12:47:00,SystemResetWarning,0832.4,5.00,000.00,029.4,028.5,000.0,037.8,031.1,013.6,0000.0,0008.91,0003.60,0002.97
2024-05-27 12:48:00,SystemResetWarning,0832.5,5.00,000.00,029.4,028.5,000.0,037.8,031.1,013.6,0000.0,0009.11,0003.58,0002.98
2024-05-27 12:49:00,SystemResetWarning,0832.5,4.99,000.00,029.4,028.5,000.0,037.8,031.1,014.2,0000.0,0009.14,0003.54,0002.96
2024-05-27 12:50:00,SystemResetWarning,0832.5,4.99,000.00,029.4,028.5,000.0,037.8,031.1,014.3,0000.0,0009.37,0003.55,0002.96
2024-05-27 12:51:00,SystemResetWarning,0832.5,5.00,000.00,029.4,028.5,000.0,037.8,031.1,014.1,0000.0,0009.37,0003.56,0002.95
2024-05-27 12:52:00,SystemResetWarning,0832.5,5.01,000.00,029.4,028.5,000.0,037.8,031.1,014.8,0000.0,0009.19,0003.56,0002.95
2024-05-27 12:53:00,SystemResetWarning,0832.5,5.00,000.00,029.4,028.6,000.0,037.8,031.1,015.0,0000.0,0008.90,0003.55,0002.94
2024-05-27 12:54:00,SystemResetWarning,0832.5,4.99,000.00,029.4,028.6,000.0,037.8,031.1,014.7,0000.0,0008.78,0003.55,0002.96
2024-05-27 12:55:00,SystemResetWarning,0832.5,4.99,000.00,029.4,028.6,000.0,037.8,031.1,014.8,0000.0,0008.90,0003.54,0002.95
2024-05-27 12:56:00,SystemResetWarning,0832.5,4.99,000.00,029.4,028.6,000.0,037.8,031.1,014.6,0000.0,0008.84,0003.53,0002.93
2024-05-27 12:57:00,SystemResetWarning,0832.5,5.00,000.00,029.4,028.6,000.0,037.8,031.1,014.6,0000.0,0008.68,0003.49,0002.91
2024-05-27 12:58:00,SystemResetWarning,0832.7,5.00,000.00,029.4,028.6,000.0,037.8,031.1,014.9,0000.0,0008.27,0003.46,0002.90
2024-05-27 12:59:00,SystemResetWarning,0832.6,5.01,000.00,029.4,028.6,000.0,037.8,031.1,014.9,0000.0,0007.86,0003.46,0002.89
